Wind_Speed
22 23 25 26 27 28 29 30 32 33 34 37 39 41 43 45 46 48 50 52 53 54 55 55 55 54 53 52 52 52 52 52 52 52 53 53 52 50 48 46 44 42 41 41 41 41 42 43 44 45 45 45 45 45 44 44 44 43 43 43 43 44
25 26 27 29 30 31 33 34 36 39 41 43 46 47 49 50 50 50 50 50 51 52 52 52 52 52 51 50 49 49 48 48 48 47 47 48 49 49 49 48 47 45 43 42 40 40 39 40 41 43 44 45 46 46 46 46 45 45 45 44 44 45
27 29 31 33 35 37 40 43 45 48 49 49 49 49 49 49 49 48 47 46 45 45 45 46 47 47 47 46 46 45 45 45 45 44 44 44 45 45 46 47 47 47 46 44 42 41 40 40 39 40 41 43 44 46 47 47 47 47 47 47 47 46
32 35 37 39 42 45 47 49 50 50 48 47 46 46 45 45 45 44 43 42 41 40 40 40 41 41 42 42 42 42 41 41 42 42 42 42 43 44 45 46 46 47 47 46 45 44 43 43 42 41 41 41 42 43 45 46 48 48 48 48 48 48
39 41 43 45 46 46 46 45 45 44 43 43 43 43 43 42 42 41 40 39 38 37 36 36 36 37 37 38 39 39 39 40 40 40 40 41 41 42 43 44 45 46 47 47 47 47 46 46 46 45 45 44 44 44 44 45 47 49 49 50 50 49
44 45 45 45 44 42 40 39 39 40 40 41 41 41 40 39 38 37 36 35 35 34 33 33 33 33 34 35 36 37 37 38 39 39 40 41 42 42 43 44 45 46 47 47 48 48 48 48 48 48 48 48 48 48 48 47 48 49 50 51 52 52
44 43 42 41 40 38 37 37 38 39 40 40 39 38 37 35 34 33 32 32 31 31 30 30 30 30 31 32 33 34 35 36 37 38 40 41 42 43 44 45 46 47 47 48 48 48 48 49 49 49 49 49 49 50 51 51 51 51 52 52 53 54
42 41 39 38 38 37 38 38 39 39 39 38 37 35 33 31 30 29 29 28 28 29 28 29 29 30 31 32 33 34 35 36 38 39 40 41 42 43 44 44 45 46 47 48 48 49 50 50 50 51 51 52 52 53 54 55 55 55 56 55 55 55
39 38 37 37 38 39 39 40 40 39 37 35 33 31 30 28 27 27 26 27 28 28 29 30 30 31 32 33 34 35 36 37 38 39 40 41 41 42 42 43 43 44 45 46 47 49 50 51 52 53 54 55 57 58 59 59 59 60 60 60 59 59
37 37 38 39 40 41 41 39 37 35 34 32 30 29 28 27 26 26 27 28 29 30 31 31 32 33 34 34 35 36 37 38 38 39 40 40 41 41 41 42 43 43 44 45 47 48 50 52 53 55 57 60 62 63 64 64 64 65 65 64 64 63
38 39 40 41 41 41 39 36 34 32 30 29 28 27 27 26 27 28 29 30 31 32 33 33 34 35 35 36 36 36 37 38 39 40 40 40 41 42 42 43 44 45 46 47 48 50 51 53 54 56 60 63 65 67 68 69 69 69 69 69 69 68
40 40 41 41 40 38 35 33 31 29 28 27 27 27 27 27 28 29 30 32 33 33 34 35 36 36 36 36 36 37 38 39 40 40 41 41 42 43 44 45 46 48 49 51 52 53 54 55 57 59 62 64 66 68 69 70 71 71 72 72 73 72
41 42 41 40 37 34 32 30 29 28 28 27 27 28 29 29 30 31 32 34 34 34 35 35 35 35 36 36 37 38 39 40 41 41 42 43 43 44 46 47 48 49 52 54 55 56 58 59 61 63 65 66 66 65 66 67 68 70 71 72 73 74
42 41 39 36 33 31 30 30 29 29 29 29 30 31 33 34 35 35 36 36 35 35 36 36 36 36 36 37 38 39 40 41 42 42 43 44 45 46 47 48 50 52 54 57 58 59 61 63 65 67 67 65 64 63 64 65 66 67 69 70 71 72
40 38 35 33 31 30 30 30 30 30 31 32 34 36 37 38 39 38 38 37 37 37 37 37 37 38 38 39 40 41 41 42 42 43 45 46 47 48 49 50 52 54 56 59 61 62 64 66 68 67 66 64 64 64 66 67 68 69 71 71 72 73
37 35 33 31 30 30 29 30 31 32 34 36 37 38 38 39 39 38 38 38 38 39 39 39 40 40 41 42 42 43 43 43 44 45 46 48 49 49 50 52 54 56 59 62 63 65 67 68 67 65 64 65 66 68 70 71 73 74 75 75 76 76
34 32 31 29 29 29 29 31 33 34 36 37 37 37 37 37 37 38 39 40 41 41 42 42 43 43 44 44 44 44 44 45 46 47 48 49 50 51 52 54 56 59 61 63 66 68 70 68 65 64 65 67 69 71 74 76 78 80 80 80 78 78
31 30 30 30 30 31 33 34 35 35 35 35 34 35 36 37 38 40 41 42 43 43 44 44 45 45 45 45 45 45 45 46 48 49 50 51 51 52 54 56 58 61 63 65 68 70 69 65 64 65 67 69 71 74 77 80 81 80 77 74 71 71
31 31 32 33 34 36 37 36 35 34 33 33 34 35 36 38 40 41 42 43 44 44 45 45 46 46 46 46 46 46 46 48 49 50 51 52 53 54 56 58 60 63 65 68 70 69 66 64 64 67 69 70 73 76 78 78 74 69 64 59 56 56
34 35 37 38 38 38 37 35 33 32 32 33 34 35 37 38 40 41 42 43 44 45 45 45 46 46 46 46 46 47 47 48 49 51 52 54 55 56 58 60 63 65 68 70 69 66 64 64 66 68 69 71 74 75 72 66 61 57 54 50 47 45
38 38 38 38 37 36 34 33 32 32 32 33 34 36 37 38 40 42 43 44 45 45 45 46 46 46 46 46 46 47 48 49 50 51 53 55 56 58 60 62 64 67 70 69 65 64 65 66 66 67 69 71 71 66 60 56 55 54 52 49 46 43
36 36 35 35 34 33 32 32 32 32 33 34 36 37 38 39 41 43 44 45 46 46 46 46 46 46 45 45 46 47 48 49 51 52 54 55 57 59 61 63 66 69 69 66 63 63 65 65 65 67 69 69 63 56 53 52 52 52 50 49 46 43
33 33 33 32 32 32 32 32 33 34 35 36 38 40 41 42 43 44 45 46 47 46 46 46 46 45 45 45 46 47 48 50 52 53 55 56 57 60 62 64 68 68 65 62 62 63 64 64 65 67 67 62 54 50 50 50 50 49 48 47 46 44
32 32 32 32 32 32 33 33 34 35 37 38 40 42 43 44 45 46 47 47 47 47 46 46 45 44 44 45 46 47 49 50 52 53 54 56 58 60 63 66 67 65 62 61 61 62 62 63 66 67 62 54 49 49 49 49 48 48 47 47 46 46
33 33 33 33 33 33 34 34 35 37 38 40 42 43 44 46 47 48 48 48 48 47 46 45 44 44 44 45 46 48 49 51 52 53 54 56 58 61 64 65 63 61 60 60 60 60 61 63 65 63 55 48 47 49 49 48 48 48 48 49 49 49
34 35 35 34 34 34 35 36 37 39 40 42 43 44 45 47 48 48 48 48 47 45 44 43 43 43 44 45 47 49 50 51 52 53 55 57 59 62 64 63 59 59 60 60 59 59 60 61 62 57 48 45 46 47 46 46 46 47 48 50 51 51
37 37 36 36 35 35 36 37 38 40 41 43 43 44 46 47 48 48 48 47 45 44 43 42 42 42 44 45 47 49 50 51 52 53 55 57 60 62 61 59 58 59 59 59 59 59 58 59 59 52 43 42 44 44 43 43 43 44 45 47 48 48
39 38 38 37 36 36 37 38 39 41 42 43 43 44 45 46 47 47 46 45 44 42 41 41 41 42 43 45 47 48 49 51 52 54 56 58 59 59 58 56 57 58 58 58 59 58 56 56 55 47 40 40 42 42 42 42 42 41 42 43 43 43
40 40 39 38 37 37 37 38 40 41 42 42 43 44 45 45 46 45 44 42 41 40 40 40 40 42 43 45 47 48 49 51 52 54 56 57 57 56 55 55 56 56 57 58 58 56 56 55 52 46 40 39 41 42 43 43 42 41 40 40 41 41
40 40 40 38 37 37 38 39 40 41 41 42 43 44 45 45 45 43 41 39 39 38 38 39 41 42 44 45 47 48 49 51 52 54 55 55 54 54 54 54 54 55 56 57 57 57 57 55 51 47 42 40 41 43 45 45 45 43 42 41 41 42
40 41 40 38 38 38 39 39 40 41 41 42 43 44 44 44 42 40 38 37 37 37 38 39 41 43 45 46 47 47 49 51 52 53 53 52 51 51 53 53 53 55 57 58 58 58 58 56 52 48 43 40 41 42 44 45 44 43 42 41 40 41
41 41 40 39 39 39 39 39 40 41 41 42 42 43 42 41 39 37 35 35 36 37 38 40 42 44 45 46 47 48 49 50 51 51 51 50 49 49 50 50 51 54 56 57 58 58 57 56 53 50 46 42 40 40 41 42 41 40 39 39 37 36
41 41 39 39 39 38 39 39 40 41 41 41 42 41 39 38 36 34 34 35 36 38 40 41 43 45 45 46 48 49 50 51 50 48 46 46 47 47 46 47 49 51 53 55 56 56 55 53 52 50 47 43 40 39 40 40 40 38 37 36 35 35
41 39 38 38 38 38 38 38 39 40 40 39 38 37 35 34 33 33 34 36 38 39 41 43 44 45 46 47 48 50 51 52 51 48 43 41 43 44 44 46 48 49 50 51 53 53 53 52 50 49 47 43 40 39 40 40 40 38 35 33 32 33
39 38 37 37 37 36 36 36 37 37 36 35 35 34 33 33 33 34 36 38 40 41 43 44 45 46 47 48 49 50 51 52 51 49 45 42 39 38 39 43 46 48 49 49 49 50 50 49 49 48 46 44 41 39 39 39 38 36 34 32 32 33
38 37 36 36 36 35 34 34 35 35 34 34 33 33 33 34 35 37 39 40 41 43 44 45 46 46 47 49 50 51 51 50 48 47 47 46 43 38 36 38 40 43 46 46 46 45 46 45 45 45 45 44 41 39 39 39 36 34 32 31 31 32
38 37 36 35 35 34 33 33 34 34 34 33 34 34 36 37 38 40 41 42 43 44 45 46 47 47 48 50 51 51 51 48 45 44 45 45 44 42 40 39 38 38 39 41 42 41 41 41 41 41 40 41 40 39 38 38 35 33 31 29 28 27
37 36 35 35 34 33 33 33 33 34 34 34 35 36 38 39 41 42 43 44 45 46 47 47 48 49 49 50 51 51 49 46 43 43 42 41 41 42 42 42 40 38 36 37 38 39 38 37 37 37 37 38 38 37 37 36 34 32 30 28 26 23
Wind_Direction
274 279 284 287 291 294 296 298 299 300 300 299 299 298 297 296 294 293 292 292 292 292 292 293 294 295 296 296 295 295 294 293 293 292 292 292 293 293 293 292 291 289 287 284 282 280 278 277 275 275 275 274 274 273 273 273 274 273 273 272 273 273
277 282 287 290 294 296 297 299 299 299 299 298 298 297 296 294 293 291 289 288 288 288 289 291 292 294 294 295 295 295 294 293 292 291 290 289 289 289 289 290 289 289 288 286 284 281 279 276 273 271 271 270 271 271 271 271 270 270 270 270 270 271
282 286 291 294 297 298 298 298 298 298 299 299 298 297 295 294 294 293 293 292 291 291 291 291 292 292 293 293 293 292 292 291 290 290 289 288 287 287 287 287 288 288 288 288 287 286 284 282 279 275 272 269 268 268 269 269 269 268 268 268 267 267
287 289 291 293 294 294 294 295 296 297 297 296 296 295 295 295 296 297 297 296 295 294 293 292 291 291 292 292 292 292 291 290 289 288 288 287 287 287 286 286 286 287 288 289 289 289 288 287 285 283 280 277 273 270 269 269 269 268 267 267 266 265
289 290 292 293 295 295 296 297 297 297 296 297 297 298 299 300 300 300 299 299 297 296 294 292 290 289 289 288 289 289 289 289 289 289 289 289 289 289 289 288 288 288 288 289 290 290 290 289 288 287 286 285 282 279 275 272 270 269 268 267 267 266
294 295 297 299 300 300 300 299 298 297 298 300 301 302 302 302 302 301 300 299 298 296 294 292 290 289 288 287 287 287 288 288 289 289 289 290 291 291 292 292 291 291 290 290 290 290 290 290 289 289 288 287 286 284 282 278 275 272 270 269 267 267
297 298 299 300 300 300 299 297 297 298 299 301 302 302 302 301 301 300 299 298 297 296 295 294 293 292 291 291 291 291 291 291 291 291 291 291 291 291 291 291 291 291 291 291 290 290 290 290 290 289 289 288 288 286 285 283 280 277 275 272 270 268
296 296 297 298 298 297 296 295 296 297 298 298 299 299 299 298 298 298 297 297 296 295 294 294 294 294 293 293 293 293 293 293 293 294 294 293 293 292 292 291 290 290 290 290 290 290 290 290 290 290 290 290 290 289 287 285 284 282 279 276 274 272
294 295 297 297 295 294 294 294 295 295 295 295 296 296 296 296 297 297 296 295 294 294 293 293 292 292 292 292 292 292 292 292 293 293 293 292 292 292 291 291 291 291 291 290 290 291 291 291 291 292 292 292 291 290 289 287 286 284 282 280 278 276
294 295 296 295 294 293 294 295 294 293 293 293 293 294 295 296 297 296 295 294 293 292 292 292 292 291 291 291 290 290 290 290 290 289 289 289 289 289 290 291 291 291 292 292 292 292 293 293 293 293 293 293 292 291 290 288 287 285 284 282 280 279
292 293 293 293 293 293 293 293 292 291 291 290 291 292 294 295 295 294 293 292 292 292 292 292 292 292 291 290 289 288 288 287 286 286 286 287 288 289 290 291 292 293 294 294 294 294 294 294 294 294 294 294 292 291 290 289 287 286 285 283 281 280
289 291 291 291 291 291 290 288 287 286 286 287 289 290 291 293 294 294 293 292 292 292 291 291 291 291 290 290 289 288 287 286 286 287 287 288 289 291 291 292 294 296 296 297 296 296 296 296 296 296 296 296 295 293 292 290 288 286 285 283 282 280
289 290 289 288 287 286 283 282 281 281 282 284 285 287 289 291 293 294 293 293 291 290 289 289 289 289 289 290 289 289 288 288 289 289 290 291 292 293 294 295 296 297 299 299 299 298 298 299 300 300 299 298 296 294 293 291 289 287 285 283 281 279
288 287 285 283 281 279 278 278 278 279 280 282 284 286 289 292 294 295 295 293 291 290 289 289 289 290 290 290 291 291 291 292 292 292 293 294 294 295 296 297 299 300 301 301 301 301 301 302 302 302 300 298 296 294 293 291 290 288 287 285 283 280
285 282 280 279 277 276 276 278 279 281 284 287 289 292 294 296 297 297 296 295 294 293 293 293 294 294 294 294 294 294 295 295 295 295 296 296 296 297 298 299 301 302 302 302 303 303 304 305 304 302 300 297 295 294 292 290 289 288 287 286 284 283
281 281 280 279 278 278 280 282 285 288 292 295 296 298 298 298 298 298 298 298 298 298 298 298 299 298 298 298 297 298 298 298 297 297 297 297 297 298 299 301 302 303 303 304 305 305 307 306 304 300 298 296 294 293 292 290 289 288 287 286 284 283
283 283 282 282 282 283 286 290 293 297 298 300 300 299 298 298 298 298 299 299 299 300 301 301 301 300 300 300 300 300 299 299 299 298 298 298 299 299 301 302 303 304 305 305 306 307 308 305 301 298 297 296 295 294 293 292 291 290 289 287 285 282
282 282 282 283 285 288 292 296 298 299 299 299 298 297 297 297 297 297 298 299 301 301 301 301 301 301 300 300 300 300 299 299 299 299 299 300 300 301 303 304 305 306 306 307 308 308 306 303 300 299 299 298 297 296 295 294 294 293 291 289 285 282
279 279 281 283 286 290 293 295 296 296 296 295 294 295 295 295 296 297 299 300 300 301 301 301 301 300 300 300 299 299 299 299 299 300 301 301 302 304 305 305 306 307 307 308 309 307 304 302 301 301 301 300 299 299 298 297 296 294 293 291 288 284
277 280 282 285 287 289 291 293 294 294 294 293 294 294 295 295 297 298 299 299 299 299 300 300 299 299 299 299 299 299 299 300 301 302 302 303 304 305 306 307 307 308 309 309 308 305 303 303 303 303 302 302 302 302 300 298 296 295 295 294 292 290
280 282 284 286 288 290 293 295 295 295 294 293 293 294 295 296 297 297 297 298 299 299 299 299 299 299 299 299 299 299 300 301 302 303 304 305 306 306 307 308 308 309 310 309 307 305 305 305 305 305 304 305 305 302 299 297 296 296 295 294 292 290
284 286 288 290 292 294 296 297 296 295 293 293 293 294 295 296 296 296 297 298 300 300 300 300 300 299 299 299 299 300 301 303 303 304 305 306 307 307 308 309 310 310 310 308 306 306 308 308 307 307 308 308 305 301 299 298 297 295 293 291 289 288
291 292 294 295 296 297 297 296 296 294 293 293 293 294 296 297 297 298 299 300 301 301 301 301 300 299 299 299 300 301 303 304 304 305 306 307 308 309 309 310 311 310 309 307 308 309 310 310 309 310 310 308 304 301 301 300 297 294 291 288 286 285
297 297 297 297 296 297 297 296 295 294 293 293 294 295 297 298 298 299 300 301 302 302 301 301 300 299 299 300 301 302 303 305 305 306 307 308 309 310 311 311 311 310 308 308 310 312 312 312 312 313 311 308 305 304 304 301 298 296 292 287 285 284
299 299 298 297 297 297 297 296 295 294 293 294 296 297 299 299 299 300 301 301 302 302 301 300 299 299 299 300 302 303 305 306 307 308 309 311 311 312 312 312 311 309 309 311 313 314 314 314 314 314 311 307 307 307 306 304 302 299 295 291 289 287
298 298 298 297 297 297 297 296 295 294 294 295 297 299 299 300 300 301 301 302 302 302 301 299 298 298 299 301 303 304 306 307 308 310 312 313 313 314 313 313 311 310 312 314 315 315 315 316 316 314 310 308 309 308 307 305 302 298 296 293 291 290
296 297 296 296 296 296 296 296 295 295 296 297 299 299 300 300 301 301 301 302 302 301 299 298 298 299 300 303 304 305 307 308 310 312 313 314 315 315 314 313 312 312 314 316 316 316 316 316 317 315 309 307 308 307 306 303 299 296 294 291 289 288
294 295 294 294 295 296 296 296 296 297 297 298 299 299 299 300 300 300 300 300 300 299 297 297 298 299 301 303 305 306 308 310 312 314 315 315 316 315 314 313 313 315 317 317 316 315 316 318 319 316 309 306 308 308 306 303 299 296 293 289 288 287
293 292 293 294 295 296 296 296 296 296 297 297 298 298 298 298 298 299 298 298 297 297 297 297 299 300 302 304 306 307 310 312 314 315 316 316 316 314 313 314 315 316 318 317 316 317 319 320 322 319 312 307 308 309 308 307 305 301 296 292 290 290
291 291 292 293 294 295 295 295 295 295 296 296 297 297 296 296 297 297 296 296 296 296 297 298 299 301 304 305 307 309 311 313 314 315 316 316 315 314 314 315 317 318 318 318 318 320 322 324 325 323 316 310 309 309 310 312 311 308 304 300 297 296
289 290 291 293 294 294 294 294 294 294 295 296 296 296 296 295 295 295 295 295 295 296 297 298 301 303 305 306 308 310 313 314 315 316 316 315 314 315 316 317 319 320 319 319 320 322 324 326 327 325 320 314 310 309 310 311 311 309 306 303 303 302
288 289 291 292 292 293 293 293 293 294 295 296 296 296 296 295 294 294 294 294 295 295 297 299 302 304 306 307 309 311 313 314 315 315 315 314 315 316 318 319 320 320 319 319 321 323 325 327 327 326 323 317 311 307 306 307 308 307 303 301 301 300
287 288 289 290 290 291 292 292 293 295 296 297 297 296 296 295 294 294 293 294 294 296 298 301 303 305 307 309 311 312 313 314 315 314 313 314 315 317 318 318 318 318 318 319 321 323 325 326 326 325 322 318 311 305 304 304 305 304 302 301 301 300
287 287 288 288 288 289 291 292 293 295 296 297 297 297 297 295 294 293 292 293 295 297 300 302 304 306 308 310 312 313 314 314 314 312 312 313 315 317 317 317 317 317 318 319 321 323 325 326 326 324 321 317 312 306 302 302 304 306 307 306 304 303
287 287 287 287 287 289 290 291 292 294 296 297 298 298 296 293 292 291 292 294 296 298 301 303 305 307 309 311 312 313 313 313 313 312 311 313 314 316 316 316 317 318 319 321 322 324 325 325 324 322 320 317 312 307 302 302 305 309 310 308 308 308
286 285 286 286 287 288 289 289 290 293 295 296 296 295 293 291 290 291 293 295 297 299 302 304 306 307 309 311 312 313 313 312 311 311 312 314 315 316 316 316 316 317 318 321 323 324 325 325 323 321 319 316 313 308 304 304 307 311 312 312 314 314
285 285 285 286 287 287 287 287 289 292 294 294 294 293 291 290 291 293 295 297 299 300 302 304 306 307 309 310 311 312 311 311 310 310 313 315 317 318 319 318 318 318 319 320 323 326 327 325 323 321 319 316 313 310 307 307 309 312 314 317 317 313
285 285 285 285 285 285 285 286 288 291 292 292 292 292 291 291 293 294 296 298 299 300 302 304 305 306 307 309 310 310 310 309 309 310 313 315 316 317 318 319 320 321 322 324 326 328 330 328 326 324 321 317 314 311 309 309 310 312 316 321 319 312
Height
3094 3093 3092 3091 3090 3089 3088 3087 3087 3086 3086 3085 3085 3085 3084 3084 3083 3082 3080 3079 3078 3077 3076 3075 3074 3073 3072 3071 3069 3068 3067 3066 3065 3063 3062 3060 3058 3056 3055 3054 3053 3053 3052 3052 3052 3052 3051 3050 3049 3047 3046 3045 3043 3042 3041 3040 3039 3039 3038 3037 3036 3035
3091 3090 3089 3088 3087 3086 3085 3085 3084 3083 3083 3082 3082 3081 3080 3079 3078 3078 3077 3076 3076 3074 3073 3071 3069 3068 3067 3065 3064 3062 3061 3060 3059 3057 3056 3054 3053 3051 3050 3048 3047 3046 3046 3045 3045 3044 3044 3044 3043 3042 3041 3039 3038 3036 3035 3034 3033 3032 3031 3030 3029 3028
3088 3087 3086 3084 3083 3082 3081 3081 3080 3080 3079 3078 3077 3076 3075 3074 3073 3072 3072 3071 3070 3069 3068 3066 3064 3063 3061 3059 3058 3057 3055 3054 3053 3051 3050 3049 3047 3046 3045 3043 3042 3040 3039 3038 3038 3037 3036 3036 3036 3035 3034 3034 3032 3031 3029 3028 3027 3025 3024 3023 3023 3022
3085 3084 3083 3081 3081 3080 3079 3078 3077 3076 3075 3074 3074 3073 3071 3070 3068 3067 3066 3064 3064 3063 3062 3061 3059 3058 3056 3054 3053 3051 3050 3049 3047 3046 3045 3044 3042 3041 3040 3038 3037 3035 3034 3033 3031 3030 3029 3029 3028 3027 3027 3026 3025 3024 3023 3021 3019 3018 3018 3017 3016 3015
3081 3080 3079 3078 3077 3076 3075 3074 3073 3072 3071 3070 3069 3067 3066 3065 3063 3062 3060 3059 3058 3057 3056 3055 3054 3053 3051 3050 3048 3047 3045 3044 3042 3041 3040 3039 3037 3036 3035 3033 3032 3030 3029 3027 3026 3024 3023 3022 3021 3020 3019 3017 3016 3015 3014 3013 3012 3010 3010 3009 3008 3008
3076 3075 3074 3073 3071 3070 3069 3068 3067 3066 3065 3064 3062 3061 3060 3058 3057 3056 3055 3053 3052 3051 3050 3049 3048 3047 3046 3045 3044 3042 3041 3039 3038 3036 3035 3034 3033 3031 3030 3028 3027 3025 3024 3022 3021 3019 3017 3016 3014 3013 3011 3010 3008 3006 3005 3004 3003 3002 3001 3001 3000 3000
3071 3070 3068 3067 3066 3065 3065 3064 3062 3061 3059 3058 3056 3055 3054 3053 3052 3050 3049 3048 3047 3046 3045 3044 3043 3042 3041 3040 3039 3037 3036 3034 3033 3032 3030 3029 3028 3026 3025 3023 3022 3020 3018 3017 3015 3013 3012 3010 3008 3006 3005 3003 3000 2998 2996 2995 2994 2993 2993 2992 2992 2991
3066 3065 3064 3063 3062 3061 3060 3059 3058 3056 3054 3053 3051 3050 3049 3048 3047 3046 3045 3044 3043 3042 3041 3039 3038 3037 3036 3035 3033 3032 3031 3029 3028 3026 3025 3023 3022 3021 3019 3018 3016 3015 3013 3011 3009 3007 3005 3003 3002 3000 2997 2995 2992 2990 2988 2986 2984 2983 2983 2983 2983 2982
3061 3060 3059 3058 3057 3056 3055 3054 3052 3051 3049 3047 3046 3045 3044 3043 3042 3041 3040 3040 3038 3037 3036 3035 3034 3033 3032 3030 3029 3027 3026 3024 3023 3021 3019 3018 3016 3015 3014 3012 3011 3009 3007 3006 3004 3001 2999 2997 2995 2993 2990 2987 2984 2981 2979 2978 2976 2975 2974 2973 2973 2972
3056 3055 3054 3053 3052 3050 3049 3048 3046 3045 3043 3042 3041 3040 3040 3039 3038 3037 3036 3035 3034 3033 3032 3031 3030 3028 3027 3026 3024 3023 3021 3019 3018 3016 3015 3013 3011 3010 3008 3006 3005 3004 3002 3000 2998 2996 2994 2991 2989 2987 2983 2978 2975 2972 2969 2968 2967 2965 2964 2964 2963 2963
3051 3050 3049 3048 3046 3045 3044 3042 3041 3040 3039 3038 3037 3036 3036 3035 3034 3033 3032 3031 3030 3029 3027 3026 3025 3023 3022 3020 3019 3017 3016 3014 3013 3011 3010 3008 3006 3004 3003 3001 2999 2997 2995 2994 2992 2990 2988 2986 2984 2981 2976 2971 2967 2964 2961 2959 2957 2955 2954 2953 2953 2953
3047 3045 3044 3043 3041 3040 3039 3037 3036 3035 3035 3034 3033 3032 3032 3031 3030 3029 3028 3026 3025 3024 3023 3021 3020 3018 3016 3015 3013 3012 3010 3009 3007 3006 3004 3003 3001 2999 2997 2995 2993 2991 2988 2986 2984 2983 2981 2979 2977 2974 2969 2965 2960 2956 2952 2950 2948 2946 2944 2942 2941 2941
3042 3040 3039 3038 3036 3035 3034 3033 3033 3032 3031 3031 3030 3029 3028 3027 3026 3025 3023 3022 3020 3019 3017 3016 3015 3013 3011 3010 3008 3006 3005 3003 3001 3000 2998 2996 2995 2993 2991 2989 2987 2985 2982 2978 2976 2974 2972 2970 2968 2963 2959 2956 2952 2947 2943 2940 2938 2937 2934 2932 2930 2930
3037 3035 3034 3033 3032 3031 3030 3030 3029 3029 3028 3027 3026 3025 3024 3023 3021 3020 3018 3016 3015 3013 3012 3011 3009 3008 3006 3004 3002 3001 2999 2997 2995 2993 2991 2990 2988 2986 2984 2982 2980 2978 2975 2971 2968 2966 2963 2961 2957 2952 2948 2945 2941 2937 2933 2930 2928 2926 2924 2923 2920 2918
3031 3030 3029 3028 3028 3027 3027 3026 3025 3024 3023 3022 3021 3020 3018 3017 3015 3014 3012 3010 3008 3007 3005 3004 3003 3001 2999 2998 2996 2994 2993 2991 2989 2987 2985 2983 2981 2979 2977 2975 2972 2970 2966 2962 2959 2957 2954 2952 2947 2942 2938 2935 2931 2927 2923 2919 2917 2915 2913 2912 2910 2907
3026 3025 3024 3024 3024 3023 3022 3021 3020 3019 3018 3016 3015 3014 3012 3010 3009 3007 3005 3003 3002 3000 2999 2997 2996 2994 2992 2991 2989 2987 2986 2984 2982 2980 2978 2976 2974 2972 2970 2968 2965 2962 2958 2954 2950 2947 2945 2942 2936 2931 2928 2924 2920 2916 2912 2908 2906 2903 2901 2900 2898 2896
3021 3020 3019 3019 3018 3018 3017 3016 3015 3014 3012 3010 3009 3007 3006 3004 3002 3000 2999 2997 2996 2994 2992 2991 2989 2988 2986 2984 2982 2980 2979 2977 2975 2973 2971 2969 2967 2965 2963 2960 2957 2954 2950 2946 2942 2938 2936 2932 2926 2921 2918 2914 2909 2905 2900 2896 2893 2890 2888 2886 2884 2881
3016 3015 3015 3014 3014 3013 3012 3011 3009 3008 3006 3005 3003 3002 3000 2999 2997 2995 2994 2992 2990 2988 2987 2985 2983 2981 2980 2978 2976 2974 2972 2970 2968 2966 2964 2962 2960 2958 2955 2952 2949 2945 2942 2938 2933 2929 2926 2923 2917 2912 2908 2903 2898 2893 2888 2883 2879 2875 2872 2870 2868 2866
3012 3012 3011 3010 3009 3008 3007 3006 3004 3003 3002 3000 2999 2997 2995 2994 2992 2990 2988 2987 2985 2983 2981 2979 2977 2975 2974 2972 2970 2968 2966 2964 2962 2959 2956 2954 2952 2950 2947 2944 2941 2937 2933 2929 2925 2919 2915 2913 2908 2902 2897 2893 2887 2881 2875 2869 2865 2862 2859 2857 2855 2853
3009 3008 3007 3006 3005 3004 3002 3001 2999 2998 2997 2995 2994 2992 2990 2989 2987 2985 2983 2981 2980 2978 2976 2974 2972 2970 2968 2966 2964 2962 2960 2958 2955 2953 2950 2947 2944 2942 2939 2935 2932 2928 2924 2919 2916 2910 2905 2903 2899 2892 2886 2882 2876 2869 2863 2858 2855 2852 2849 2847 2845 2843
3004 3003 3002 3001 3000 2998 2997 2995 2994 2993 2991 2990 2989 2987 2986 2984 2982 2980 2978 2976 2974 2972 2970 2968 2966 2964 2962 2960 2958 2956 2954 2951 2949 2946 2943 2940 2937 2934 2931 2927 2923 2919 2915 2910 2906 2901 2896 2892 2889 2882 2876 2871 2866 2859 2854 2850 2846 2843 2841 2839 2837 2835
2999 2998 2997 2995 2994 2993 2991 2990 2989 2987 2986 2985 2984 2982 2981 2979 2977 2975 2973 2971 2969 2967 2964 2962 2960 2958 2956 2954 2952 2950 2948 2945 2942 2940 2937 2934 2930 2927 2923 2919 2915 2910 2906 2901 2897 2893 2887 2882 2878 2873 2867 2862 2856 2851 2846 2842 2839 2836 2833 2831 2829 2827
2993 2992 2991 2990 2989 2987 2986 2985 2984 2982 2981 2980 2978 2977 2975 2974 2972 2970 2968 2965 2963 2961 2958 2956 2954 2951 2950 2948 2946 2944 2942 2939 2936 2933 2930 2927 2923 2920 2916 2912 2907 2902 2898 2893 2889 2884 2878 2872 2867 2862 2857 2852 2848 2843 2839 2835 2831 2829 2826 2824 2822 2821
2988 2987 2986 2985 2984 2982 2981 2980 2978 2977 2976 2974 2973 2971 2969 2968 2966 2964 2962 2959 2957 2955 2952 2950 2948 2945 2944 2942 2939 2938 2936 2933 2929 2926 2923 2920 2916 2912 2908 2904 2899 2894 2889 2886 2881 2875 2870 2864 2858 2853 2848 2844 2839 2835 2831 2827 2824 2821 2818 2816 2815 2814
2982 2981 2980 2979 2978 2977 2976 2975 2973 2972 2970 2969 2967 2966 2964 2962 2960 2958 2956 2954 2951 2949 2946 2944 2942 2940 2938 2936 2933 2931 2929 2926 2923 2920 2916 2912 2909 2905 2901 2896 2891 2885 2881 2877 2872 2867 2862 2857 2851 2845 2840 2836 2832 2828 2823 2820 2816 2813 2810 2808 2806 2805
2977 2976 2975 2974 2973 2972 2971 2969 2968 2966 2965 2963 2962 2960 2958 2956 2954 2952 2950 2948 2945 2943 2941 2938 2936 2934 2932 2930 2927 2925 2922 2920 2916 2913 2909 2905 2901 2897 2892 2888 2883 2877 2873 2868 2863 2859 2855 2850 2844 2839 2834 2830 2825 2821 2817 2814 2810 2807 2803 2800 2798 2796
2972 2971 2970 2969 2968 2967 2965 2964 2962 2961 2959 2958 2956 2954 2952 2950 2948 2946 2944 2942 2939 2937 2935 2933 2931 2929 2927 2924 2921 2919 2916 2913 2910 2906 2902 2898 2893 2889 2885 2880 2875 2870 2864 2859 2854 2851 2848 2843 2837 2832 2828 2825 2820 2816 2813 2809 2805 2802 2798 2794 2791 2789
2967 2966 2964 2963 2962 2961 2960 2958 2956 2955 2953 2952 2950 2948 2946 2944 2942 2940 2938 2936 2933 2931 2929 2928 2926 2924 2922 2919 2916 2913 2910 2906 2903 2899 2895 2891 2886 2882 2877 2873 2868 2862 2857 2852 2847 2844 2840 2836 2831 2826 2822 2818 2814 2810 2807 2803 2800 2797 2793 2789 2786 2783
2961 2960 2959 2958 2957 2955 2954 2952 2950 2949 2947 2946 2944 2942 2940 2938 2936 2934 2932 2930 2928 2926 2924 2922 2921 2919 2917 2914 2911 2908 2904 2900 2896 2893 2888 2884 2879 2875 2871 2867 2861 2855 2849 2844 2840 2836 2832 2828 2823 2819 2815 2811 2807 2803 2800 2796 2792 2789 2786 2782 2779 2777
2956 2955 2954 2953 2951 2950 2948 2946 2945 2943 2942 2940 2938 2936 2934 2932 2930 2928 2926 2924 2922 2921 2919 2917 2915 2913 2911 2908 2905 2902 2898 2895 2890 2887 2883 2878 2873 2869 2865 2860 2854 2848 2842 2837 2832 2828 2824 2820 2816 2811 2807 2803 2800 2796 2791 2787 2783 2780 2777 2774 2772 2769
2951 2950 2948 2947 2946 2944 2943 2941 2939 2937 2936 2934 2933 2930 2928 2926 2924 2923 2921 2919 2917 2916 2914 2912 2910 2908 2905 2903 2900 2896 2893 2889 2884 2881 2877 2873 2869 2864 2859 2853 2847 2841 2835 2830 2825 2820 2815 2811 2807 2804 2801 2797 2794 2790 2785 2781 2778 2774 2770 2767 2765 2761
2945 2944 2943 2942 2940 2938 2937 2935 2933 2931 2930 2929 2927 2925 2923 2920 2919 2917 2916 2914 2913 2911 2909 2907 2905 2902 2900 2897 2894 2891 2887 2884 2879 2875 2871 2867 2864 2860 2855 2849 2842 2837 2831 2825 2820 2815 2810 2804 2800 2796 2794 2791 2789 2785 2781 2777 2774 2771 2767 2764 2761 2757
2940 2939 2938 2936 2935 2933 2931 2929 2927 2926 2924 2923 2921 2919 2917 2915 2914 2912 2911 2909 2908 2906 2904 2902 2899 2897 2894 2891 2887 2884 2881 2878 2875 2871 2867 2863 2859 2855 2851 2846 2840 2834 2829 2822 2816 2811 2806 2801 2796 2792 2789 2786 2783 2780 2776 2773 2770 2767 2764 2761 2757 2752
2935 2934 2932 2931 2929 2928 2926 2924 2922 2920 2919 2917 2915 2913 2912 2910 2909 2908 2906 2905 2903 2901 2899 2896 2894 2891 2888 2885 2881 2878 2874 2871 2869 2867 2865 2861 2857 2852 2847 2842 2836 2831 2826 2821 2814 2807 2802 2797 2793 2788 2784 2781 2778 2775 2772 2768 2765 2763 2761 2757 2753 2748
2930 2928 2927 2925 2923 2922 2921 2918 2916 2915 2913 2912 2910 2908 2907 2905 2904 2903 2901 2899 2897 2895 2893 2891 2888 2885 2882 2879 2875 2872 2868 2865 2861 2858 2857 2856 2855 2851 2846 2839 2832 2826 2821 2817 2811 2805 2799 2794 2789 2784 2780 2776 2773 2770 2767 2764 2761 2759 2757 2753 2748 2744
2923 2922 2921 2919 2918 2916 2915 2913 2911 2910 2908 2907 2905 2903 2902 2900 2899 2898 2896 2894 2892 2890 2888 2885 2882 2879 2876 2873 2870 2866 2863 2859 2856 2852 2848 2846 2845 2845 2843 2839 2832 2825 2818 2813 2808 2803 2797 2791 2786 2781 2776 2772 2769 2766 2762 2759 2757 2756 2753 2749 2744 2740
2917 2916 2915 2913 2912 2911 2909 2907 2906 2904 2903 2902 2900 2899 2897 2896 2894 2893 2891 2889 2886 2884 2882 2879 2877 2874 2870 2867 2864 2861 2857 2854 2851 2848 2844 2840 2836 2834 2833 2831 2828 2824 2818 2811 2806 2801 2796 2790 2784 2779 2774 2769 2764 2761 2758 2755 2753 2750 2748 2746 2742 2738
2911 2910 2909 2908 2906 2905 2904 2902 2900 2899 2898 2896 2895 2894 2892 2891 2889 2887 2885 2883 2881 2878 2876 2874 2871 2868 2865 2862 2859 2855 2852 2849 2846 2843 2840 2837 2833 2829 2825 2822 2820 2817 2814 2808 2802 2797 2792 2787 2782 2777 2771 2766 2761 2757 2753 2750 2748 2745 2743 2741 2738 2735